Location: ??
(35.4032°N, 139.3073°E)
Time: 16:15:54
(UTC+00:00)

CRYOSAT 2 - Pass Details

Date: 13 April 2024
Orbit: 717 x 722 km, 92.0° (Epoch: 28 May)

Event Time Altitude Azimuth Distance (km) Brightness Sun altitude
Rises 19:12:45 0° 359° (N) 3,134 8.0 -12.3°
Reaches altitude 10° 19:15:05 10° 355° (N) 2,209 7.1 -11.9°
Maximum altitude 19:19:50 55° 279° (W) 862 4.5 -11.0°
Drops below altitude 10° 19:24:34 10° 202° (SSW) 2,192 6.5 -10.1°
Sets 19:26:52 0° 198° (SSW) 3,108 7.3 -9.6°
